Погода в Гусевке

Россия / Тамбовская область     52°55′12″N   42°29′08″E
темп.,
°C
ветер,
м/с
пор.,
м/с
влажн.,
%
обл.,
%
осадки,
мм/ч
давл.,
гПа
погр.,
м
19 сентября, вс
вс1900:00+7в51058100 0.0 1023376
03:00+7вюв51159100 0.0 1023390
06:00+6вюв51060100 0.0 1023392
09:00+7вюв51061100 0.2 1023508
12:00+8вюв61066100 0.4 1022504
15:00+10вюв71056100 0.6 1021736
18:00+9вюв61270100 0.8 1020585
21:00+7вюв81587100 4.1 1019494
20 сентября, пн
пн2000:00+7вюв101886100 5.3 1017779
03:00+6вюв101989100 11.6 1016688
06:00+6вюв101891100 8.4 1015774
09:00+6вюв101891100 11.9 1015758
12:00+6юв91788100 1.2 1016765
15:00+7вюв91685100 1.2 1016746
18:00+7вюв91586100 0.0 1015729
21:00+7вюв91586100 0.1 1015692
21 сентября, вт
вт2100:00+7вюв71491100 4.8 1015614
03:00+7вюв71392100 4.9 1014492
06:00+7вюв71295100 1.9 1013468
09:00+8вюв61194100 2.4 1012507
12:00+9юв4991100 1.5 1011471
15:00+11ююв248999 1.6 1010385
18:00+11зюз228499 0.6 101035
21:00+9з258998 0.6 1011145
22 сентября, ср
ср2200:00+8юз2292100 0.0 101027
03:00+9юв2289100 0.0 101044
06:00+8ююз2493100 0.1 1010164
09:00+9ююз1392100 2.6 1010171
12:00+9зюз3481100 0.7 1010469
15:00+9зюз237994 0.9 1010379
18:00+8ююз358997 0.3 1011301
21:00+8ю248783 0.4 1011277
23 сентября, чт
чт2300:00+8ю3691100 0.0 1011345
03:00+7ююз369483 0.1 1011290
06:00+7ююз4794100 0.0 1011353
09:00+8ююз4686100 0.0 1011571
12:00+9ююз4679100 0.1 1011741
15:00+11ююз5667100 0.3 10101206
18:00+9ююз3681100 0.4 1010374
21:00+8ююз3687100 0.8 1010468